Regional Weather Roundup
Issued by NWS

Home | Current Version | Previous Version | Text Only | Print | Product List | Glossary On
Versions: 1 2 3 4 5 6 7 8 9 10 11 12 13 14 15 16 17 18 19 20 21 22 23 24 25 26 27 28 29 30 31 32 33 34 35 36 37 38 39 40 41 42 43 44 45 46 47 48 49 50
000
ASUS43 KDTX 171001
RWRMI
MICHIGAN HOURLY REGIONAL WEATHER ROUNDUP
NATIONAL WEATHER SERVICE DETROIT/PONTIAC MI
600 AM EDT THU AUG 17 2017

NOTE: "FAIR" INDICATES FEW OR NO CLOUDS BELOW 12,000 FEET WITH NO
SIGNIFICANT WEATHER AND/OR OBSTRUCTION TO VISIBILITY.

MIZ047>049-052>055-059>063-066>070-074>076-081>083-171100-
SOUTHEAST LOWER MICHIGAN

CITY           SKY/WX    TMP DP  RH WIND       PRES   REMARKS
ADRIAN         LGT RAIN  68  66  93 SE3       29.90F
ALMA           HVY RAIN  67  61  79 S9        29.88R
ANN ARBOR      LGT RAIN  69  67  93 E5        29.90F
BAD AXE        CLOUDY    69  58  68 SE6       29.92F
CARO           CLOUDY    69  56  62 SE9       29.89F
DETROIT CITY   PTCLDY    72  64  76 SE7       29.91F
DETROIT        LGT RAIN  74  65  73 VRB3      29.92S
FLINT          CLOUDY    72  60  66 S13       29.89F
GROSSE ILE     PTCLDY    74  67  77 SE6       29.90F
HILLSDALE      LGT RAIN  68  64  88 S5        29.90R
HOWELL         CLOUDY    70  64  83 SE9       29.90F

CITY           SKY/WX    TMP DP  RH WIND       PRES   REMARKS
JACKSON        CLOUDY    69  67  93 SE5       29.89S
LAMBERTVILLE   CLOUDY    69  67  95 CALM      29.90F FOG
LANSING        LGT RAIN  69  65  86 SE8       29.88S FOG
LAPEER         CLOUDY    67  60  76 SE9       29.91F
MASON          CLOUDY    68  66  94 SE6       29.88F
MONROE         CLOUDY    74  68  80 S5        29.90S
MT. CLEMENS    PTCLDY    72  65  80 SE8       29.91F
PONTIAC        CLOUDY    72  63  73 SE9       29.90F
PORT HOPE        N/A     70  62  76 SE9       29.90F
PORT HURON     CLOUDY    70  63  78 SE8       29.94S
TRI CITIES     CLOUDY    72  60  66 SE12      29.87F
MIDLAND        LGT RAIN  69  60  72 SE7       29.85F
TROY           CLOUDY    73  61  65 E6        29.93F
SAGINAW HB     CLOUDY    70  59  68 SE12      29.86F
$$
MIZ043>046-050>051-056>058-064>065-071>073-077>080-171100-
SOUTHWEST LOWER MICHIGAN

CITY           SKY/WX    TMP DP  RH WIND       PRES   REMARKS
BIG RAPIDS     CLOUDY    64  61  91 S8        29.83F
COLDWATER      CLOUDY    70  70 100 SE7       29.88S
FREMONT        MOCLDY    67  67 100 SE8       29.79F
IONIA          DRIZZLE   67  65  94 CALM      29.85S
LUDINGTON      CLOUDY    69  66  93 SE10G18   29.76S
MARSHALL       CLOUDY    68  67  98 SE3       29.87S
MOUNT PLEASANT LGT RAIN  67  63  86 CALM      29.86R
SOUTH HAVEN    CLOUDY    73  71  93 S6        29.80F
$$
MIZ016>042-171100-
NORTHERN LOWER MICHIGAN

CITY           SKY/WX    TMP DP  RH WIND       PRES   REMARKS
ALPENA         LGT RAIN  68  65  90 SE9       29.91F
BEAVER ISLAND  CLOUDY    66  62  86 E7        29.82S
BELLAIRE       RAIN      67  61  81 S3        29.85R
CADILLAC       LGT RAIN  65  62  89 SE10G16   29.84F
CHARLEVOIX     LGT RAIN  67  61  80 SE8       29.86S
FRANKFORT      CLOUDY    69  69  99 SE10G18   29.76F
GAYLORD        LGT RAIN  64  59  83 SE12      29.88F
GRAYLING       HVY RAIN  63  60  90 SE6       29.89S
HARBOR SPRINGS LGT RAIN  64  61  93 NE9       29.86R
HOUGHTON LAKE  RAIN      64  61  90 SE8       29.88F
OSCODA         CLOUDY    70  62  76 SE5       29.91S
PELLSTON       LGT RAIN  65  62  90 SE7       29.87F
ROGERS CITY    CLOUDY    66  61  84 SE6       29.91F
TRAVERSE CITY  LGT RAIN  66  63  90 SE7       29.79F
$$
MIZ007>008-015-171100-
EASTERN UPPER MICHIGAN

CITY           SKY/WX    TMP DP  RH WIND       PRES   REMARKS
MACKINAC ISLAN LGT RAIN  65  62  90 E14G20    29.87F
NEWBERRY       CLOUDY    64  63  96 E10       29.84S
S. S. MARIE    CLOUDY    64  58  80 E7        29.90F
MUNISING         N/A     65  63  93 SE12      29.77S
$$
MIZ004>006-011>014-085-171100-
CENTRAL UPPER MICHIGAN

CITY           SKY/WX    TMP DP  RH WIND       PRES   REMARKS
MANISTIQUE     RAIN      64  58  81 E8        29.79F
SAWYER-GWINN   RAIN      64  62  93 SE10      29.77F
$$
MIZ001>003-009>011-084-171100-
WESTERN UPPER MICHIGAN

CITY           SKY/WX    TMP DP  RH WIND       PRES   REMARKS
IRON MOUNTAIN  LGT RAIN  66  63  90 E3        29.71F FOG
HOUGHTON       LGT RAIN  61  59  93 E10       29.75F
COPPER HARBOR    N/A     64  60  87 S10G18    29.75F
$$

ABBREVIATIONS USED IN REMARKS
   TC - TEMPERATURE IN CELSIUS
  WCI - WIND CHILL INDEX
   HX - HEAT INDEX
  VSB - VISIBILITY





USA.gov is the U.S. government's official web portal to all federal, state and local government web resources and services.